7 * 24
多渠道服务支持
STARLINK-37493(NORAD编号68910)是SpaceX星链星座中的一颗卫星,属于星链第二代卫星,用于提供全球卫星互联网服务。星链星座旨在为全球偏远地区和网络基础设施匮乏区域提供高速低延迟互联网接入,该卫星继承了星链卫星的典型配置,配备氩气离子推进系统用于轨道机动与脱轨,搭载相控阵天线实现高带宽连接,依靠太阳能电池阵列供电,目前在近地轨道运行,服务全球数百万星链用户。
美国
(US)
| 数据来源 | 国际轨道数据 |
| 星历时间: | 2026-05-24T09:40:20+0800 1天前 查看轨道信息 |
| 半长轴: | 6797.188km |
| 偏心率: | 0.000174 |
| 轨道倾角: | 97.287° |
| 近地点辐角 | 82.469° |
| 升交点赤经 | 339.830° |
| 平近点角 | 277.676° |
| 近地点: | 417.868km |
| 远地点: | 420.234km |
| 周期: | 92.951分钟 |
| 每日圈数: | 15.492051 |